User: anonymous   Login
Location: Hamilton
(37.7830°S, 175.2830°E)
Time: 00:54:35
(UTC+13:00)
Language:

Cosmos 1707 Rocket - Orbit

View from above orbital plane
View from above orbital plane
View from above satellite
View from above satellite

Ground track
Ground track

The orbit data is extracted from the following two-line orbital elements,

1 16327U 85113B   19292.03482913 +.00000076 +00000-0 +62486-5 0  9994
2 16327 082.5377 014.1291 0020274 055.3892 355.1779 14.83446275807318
Epoch (UTC): 19 October 2019 00:50:09
Eccentricity: 0.0020274
inclination: 82.5377°
perigee height: 604 km
apogee height: 632 km
right ascension of ascending node: 14.1291°
argument of perigee: 55.3892°
revolutions per day: 14.83446275
mean anomaly at epoch: 355.1779°
orbit number at epoch: 80731

The dashed part of the orbit path shows where the satellite is in the earth's shadow,  

DLR